{"data":{"norad_id":64912,"epoch":"2026-09-20T05:18:14.613408Z","epoch_age_seconds":148400,"freshness":"FRESH","line1":"1 64912U 25157J   26263.22100247  .00016342  00000+0  49355-3 0  9993","line2":"2 64912  53.1583 158.8111 0001349  98.3263 261.7893 15.34411561 65954","mean_motion":15.34411561,"eccentricity":0.0001349,"inclination_deg":53.1583,"raan_deg":158.8111,"arg_perigee_deg":98.3263,"mean_anomaly_deg":261.7893,"bstar":0.00049355,"rev_number":6595,"period_min":93.847050986864,"perigee_km":461.74605398145,"apogee_km":463.59170340752,"semimajor_km":6840.8058786945,"source":"CELESTRAK","updated_at":"2026-09-21T09:00:35.455348Z"}}